Weather Roundup
Issued by NWS Springfield, MO

Home | Current Version | Previous Version | Text Only | Print | Product List | Glossary On
Versions: 1 2 3 4 5 6 7 8 9 10 11 12 13 14 15 16 17 18 19 20 21 22 23 24 25 26 27 28 29 30 31 32 33 34 35 36 37 38 39 40 41 42 43 44 45 46 47 48 49 50
294
NZUS99 KSGF 030707
HRRSGF

HOURLY WEATHER
NATIONAL WEATHER SERVICE SPRINGFIELD MO
200 AM CDT TUE MAY 03 2016

......SGF CWA......

CITY           SKY/WX    TMP DP  RH WIND       PRES   REMARKS
SPRINGFIELD    PTCLDY    44  41  89 CALM      30.05F FOG
JOPLIN         CLEAR     44  43  96 CALM      30.08S
WEST PLAINS    CLOUDY    51  45  79 CALM      30.04F
ROLLA          CLOUDY    48  47  96 NW7       30.02F
OSAGE BEACH    MOCLDY    43  36  75 CALM      30.06S

......SURROUNDING SGF CWA......

CITY           SKY/WX    TMP DP  RH WIND       PRES   REMARKS
CHANUTE        CLEAR     44  41  89 W3        30.08S
PARSONS        CLEAR     42  41  96 CALM      30.09S
COFFEYVILLE    CLEAR     44  43  96 CALM      30.08F
EMPORIA        PTCLDY    45  43  93 S7        30.07S
GROVE OK       CLEAR     46  45  93 CALM      30.09F
ROGERS AR      FOG       43  42  97 NW3       30.07F VSB 1/2
SILOAM SPRINGS   N/A     45  37  76 CALM      30.08S VSB 1/2
HARRISON AR    CLOUDY    49  46  90 NW3       30.05F
NEAR YELLVILLE CLOUDY   N/A N/A N/A CALM      30.02F

......KANSAS AND MISSOURI......

CITY           SKY/WX    TMP DP  RH WIND       PRES   REMARKS
KANSAS CTY INT CLEAR     47  43  86 W8        30.06F
DOWNTOWN KC    CLEAR     47  44  90 CALM      30.06F
COLUMBIA       FOG       43  43 100 CALM      30.05S VSB 1/4
SEDALIA        CLEAR     46  45  96 SW5       30.07S
ST JOSEPH      PTCLDY    42  41  96 CALM      30.07S
ST LOUIS       CLOUDY    53  48  83 NW7       30.02F
SPIRIT OF STL  CLOUDY    52  50  93 W5        30.02F
KIRKSVILLE     PTCLDY    40  38  93 NW3       30.05F FOG
WICHITA        PTCLDY    46  40  79 S3        30.06F
TOPEKA         CLEAR     43  41  93 CALM      30.07S
OLATHE         CLEAR     45  42  89 CALM      30.07S

......TENNESSEE......

CITY           SKY/WX    TMP DP  RH WIND       PRES   REMARKS
MEMPHIS        CLOUDY    61  53  75 N9        29.98F
NASHVILLE      CLOUDY    58  53  84 NW6       29.95F

......ARKANSAS.......

CITY           SKY/WX    TMP DP  RH WIND       PRES   REMARKS
FAYETTEVILLE   CLEAR     43  43 100 CALM      30.07F
FT SMITH       CLEAR     49  45  86 CALM      30.07F
LITTLE ROCK    CLOUDY    59  50  72 N5        30.03F

......OKLAHOMA.......

CITY           SKY/WX    TMP DP  RH WIND       PRES   REMARKS
TULSA          CLEAR     47  46  97 CALM      30.07F
PONCA CITY     CLEAR     42  40  92 CALM      30.07F
MCALESTER      CLEAR     45  42  89 CALM      30.09F
OKLAHOMA CITY  CLEAR     44  41  89 SW6       30.09F

......IOWA............

CITY           SKY/WX    TMP DP  RH WIND       PRES   REMARKS
DES MOINES     PTCLDY    45  40  82 SW3       30.05S
QUAD CITIES    CLEAR     43  40  89 CALM      30.01F

......ILLINOIS........

CITY           SKY/WX    TMP DP  RH WIND       PRES   REMARKS
QUINCY         CLOUDY    49  47  93 W5        30.03S
CHICAGO        CLEAR     42  36  79 W3        29.99F




USA.gov is the U.S. government's official web portal to all federal, state and local government web resources and services.